Location: Unspecified
(41.5000°N, 0.0000°E)
Time: 22:02:28
(UTC+00:00)

Courier 1B Rocket - All Passes

Search period start: 25 June 2019 00:00
Search period end: 05 July 2019 00:00
Orbit: 920 x 1202 km, 28.2° (Epoch: 24 June)

Date Brightness Start Highest point End Pass type
(mag) Time Alt. Az. Time Alt. Az. Time Alt. Az.
25 Jun - 02:38:37 10° SSW 02:43:27 19° SSE 02:48:04 10° ESE visible
25 Jun - 04:30:28 10° SW 04:36:05 26° S 04:41:24 10° SE daylight
25 Jun - 06:23:45 10° WSW 06:28:39 22° SSW 06:33:21 10° SE daylight
26 Jun - 01:38:29 10° SSW 01:42:37 16° SSE 01:46:37 10° SE visible
26 Jun - 03:29:34 10° SW 03:35:15 25° S 03:40:38 10° ESE visible
26 Jun - 05:22:29 10° WSW 05:27:53 25° S 05:33:03 10° SE daylight
26 Jun - 07:17:00 10° SW 07:20:17 14° SSW 07:23:31 10° S daylight
27 Jun - 00:39:05 10° S 00:41:47 12° SSE 00:44:25 10° SE visible
27 Jun - 02:28:48 10° SW 02:34:23 23° SSE 02:39:42 10° ESE visible
27 Jun - 04:21:18 10° WSW 04:27:05 27° S 04:32:33 10° SE daylight
27 Jun - 06:15:08 10° WSW 06:19:37 19° SSW 06:23:55 10° SSE daylight
28 Jun - 01:28:15 10° SSW 01:33:30 20° SSE 01:38:33 10° ESE visible
28 Jun - 03:20:14 10° SW 03:26:13 27° S 03:31:53 10° ESE visible
28 Jun - 05:13:37 10° WSW 05:18:52 23° SSW 05:23:51 10° SE daylight
28 Jun - 07:10:04 10° SW 07:11:10 10° SSW 07:12:16 10° SSW daylight
29 Jun - 00:28:02 10° SSW 00:32:37 17° SSE 00:37:04 10° ESE visible
29 Jun - 02:19:16 10° SW 02:25:20 27° S 02:31:05 10° ESE visible
29 Jun - 04:12:16 10° WSW 04:18:03 26° S 04:23:32 10° SE daylight
29 Jun - 06:06:50 10° SW 06:10:31 15° SSW 06:14:04 10° S daylight
29 Jun - 23:28:30 10° S 23:31:45 13° SSE 23:34:58 10° SE night (unlit)
30 Jun - 01:18:28 10° SW 01:24:24 25° SSE 01:30:05 10° ESE visible
30 Jun - 03:11:03 10° WSW 03:17:11 28° S 03:23:00 10° SE visible
30 Jun - 05:04:56 10° WSW 05:09:47 20° SSW 05:14:25 10° SSE daylight
01 Jul - 00:17:54 10° SSW 00:23:28 22° SSE 00:28:52 10° ESE visible
01 Jul - 02:09:56 10° SW 02:16:15 29° S 02:22:17 10° ESE visible
01 Jul - 04:03:22 10° WSW 04:08:59 24° SSW 04:14:20 10° SE daylight
01 Jul - 05:59:29 10° SW 06:01:21 11° SSW 06:03:12 10° S daylight
01 Jul - 23:17:42 10° SSW 23:22:33 18° SSE 23:27:20 10° ESE night (unlit)
02 Jul - 01:08:58 10° SW 01:15:18 28° S 01:21:23 10° ESE visible
02 Jul - 03:02:00 10° WSW 03:08:07 27° S 03:13:56 10° SE visible
02 Jul - 04:56:34 10° WSW 05:00:39 16° SSW 05:04:35 10° SSE daylight
02 Jul - 22:18:08 10° S 22:21:40 14° SSE 22:25:11 10° SE night (unlit)
03 Jul - 00:08:11 10° SW 00:14:20 26° SSE 00:20:19 10° ESE visible
03 Jul - 02:00:46 10° WSW 02:07:11 29° S 02:13:20 10° SE visible
03 Jul - 03:54:39 10° WSW 03:59:52 20° SSW 04:04:52 10° SSE visible
03 Jul - 23:07:40 10° SSW 23:13:22 22° SSE 23:19:01 10° ESE night (unlit)
04 Jul - 00:59:40 10° SW 01:06:12 30° S 01:12:31 10° ESE visible
04 Jul - 02:53:05 10° WSW 02:59:00 25° SSW 03:04:41 10° SE visible
04 Jul - 04:48:57 10° SW 04:51:28 12° SSW 04:53:54 10° S daylight
04 Jul - 22:07:31 10° SSW 22:12:27 18° SSE 22:17:24 10° ESE visible
